QPF
0.00 0.00 0.00 0.00 0.00 0.00 0.00 0.00 0.00 0.01 0.01 0.01 0.01 0.02 0.02 0.02 0.02 0.02 0.02 0.01 0.00 0.01 0.01 0.02 0.01 0.01 0.01 0.01 0.01 0.01 0.02 0.03 0.06 0.08 0.11 0.13 0.12 0.09 0.04 0.01 0.00 0.00 0.00
0.00 0.00 0.00 0.00 0.00 0.00 0.00 0.00 0.00 0.01 0.01 0.01 0.01 0.01 0.01 0.01 0.01 0.01 0.01 0.01 0.00 0.00 0.01 0.01 0.01 0.01 0.01 0.01 0.01 0.01 0.01 0.02 0.03 0.04 0.05 0.07 0.10 0.11 0.09 0.02 0.00 0.00 0.00
0.00 0.00 0.00 0.00 0.00 0.00 0.01 0.01 0.02 0.02 0.02 0.02 0.01 0.02 0.02 0.01 0.00 0.01 0.01 0.00 0.00 0.00 0.01 0.01 0.01 0.01 0.01 0.01 0.01 0.01 0.02 0.01 0.02 0.02 0.02 0.03 0.06 0.09 0.10 0.06 0.01 0.01 0.01
0.00 0.00 0.00 0.01 0.01 0.01 0.02 0.02 0.04 0.03 0.02 0.02 0.02 0.02 0.01 0.01 0.01 0.01 0.00 0.00 0.00 0.00 0.01 0.02 0.01 0.01 0.01 0.01 0.01 0.01 0.02 0.02 0.02 0.02 0.02 0.03 0.05 0.07 0.08 0.06 0.03 0.02 0.02
0.01 0.01 0.02 0.02 0.02 0.02 0.03 0.05 0.07 0.06 0.04 0.04 0.03 0.03 0.04 0.03 0.02 0.02 0.02 0.01 0.01 0.00 0.00 0.00 0.01 0.01 0.01 0.01 0.01 0.02 0.02 0.02 0.02 0.03 0.04 0.05 0.08 0.09 0.08 0.06 0.05 0.04 0.04
0.02 0.02 0.03 0.04 0.05 0.06 0.05 0.06 0.09 0.08 0.05 0.05 0.04 0.03 0.04 0.03 0.03 0.05 0.05 0.05 0.03 0.01 0.01 0.00 0.00 0.00 0.00 0.00 0.01 0.02 0.02 0.02 0.02 0.02 0.03 0.07 0.12 0.15 0.12 0.08 0.07 0.08 0.07
0.03 0.03 0.04 0.07 0.08 0.07 0.06 0.07 0.11 0.11 0.07 0.08 0.06 0.03 0.02 0.02 0.05 0.09 0.14 0.15 0.10 0.05 0.02 0.01 0.00 0.00 0.00 0.00 0.00 0.01 0.01 0.02 0.02 0.02 0.03 0.05 0.11 0.18 0.14 0.11 0.13 0.15 0.15
0.03 0.04 0.04 0.05 0.06 0.06 0.06 0.07 0.11 0.11 0.08 0.10 0.09 0.08 0.04 0.03 0.07 0.17 0.29 0.30 0.19 0.08 0.03 0.02 0.01 0.00 0.00 0.00 0.00 0.00 0.01 0.01 0.02 0.02 0.02 0.03 0.08 0.15 0.16 0.17 0.20 0.24 0.25
0.01 0.01 0.02 0.02 0.04 0.05 0.05 0.05 0.08 0.10 0.07 0.09 0.11 0.11 0.09 0.06 0.04 0.06 0.10 0.16 0.18 0.14 0.07 0.03 0.01 0.00 0.00 0.00 0.00 0.00 0.00 0.00 0.01 0.01 0.01 0.03 0.06 0.10 0.17 0.24 0.30 0.34 0.36
0.01 0.00 0.01 0.01 0.02 0.04 0.05 0.06 0.10 0.11 0.12 0.13 0.15 0.14 0.12 0.12 0.09 0.03 0.03 0.08 0.12 0.14 0.11 0.06 0.02 0.00 0.00 0.00 0.00 0.00 0.00 0.00 0.00 0.00 0.00 0.02 0.05 0.11 0.18 0.32 0.40 0.40 0.36
0.00 0.01 0.01 0.02 0.03 0.05 0.08 0.09 0.12 0.14 0.15 0.15 0.16 0.15 0.13 0.13 0.13 0.11 0.05 0.02 0.03 0.05 0.07 0.05 0.03 0.01 0.00 0.00 0.00 0.00 0.00 0.00 0.00 0.00 0.00 0.01 0.04 0.09 0.17 0.30 0.39 0.39 0.31
0.00 0.01 0.01 0.03 0.05 0.08 0.11 0.14 0.14 0.14 0.14 0.14 0.13 0.14 0.15 0.16 0.16 0.17 0.12 0.08 0.04 0.02 0.03 0.04 0.04 0.04 0.03 0.02 0.01 0.00 0.00 0.00 0.00 0.00 0.00 0.00 0.02 0.05 0.12 0.21 0.30 0.35 0.25
0.00 0.01 0.01 0.03 0.06 0.10 0.13 0.14 0.14 0.13 0.13 0.12 0.13 0.14 0.16 0.17 0.21 0.29 0.37 0.36 0.24 0.11 0.06 0.06 0.06 0.07 0.06 0.04 0.01 0.01 0.00 0.00 0.00 0.00 0.00 0.00 0.01 0.04 0.07 0.13 0.20 0.22 0.15
0.00 0.00 0.01 0.03 0.05 0.07 0.10 0.11 0.12 0.12 0.12 0.12 0.13 0.16 0.18 0.18 0.19 0.27 0.39 0.46 0.42 0.23 0.11 0.07 0.07 0.06 0.06 0.04 0.03 0.02 0.01 0.00 0.00 0.00 0.00 0.01 0.02 0.03 0.05 0.08 0.11 0.09 0.05
0.00 0.00 0.01 0.04 0.07 0.09 0.12 0.13 0.14 0.15 0.14 0.13 0.14 0.16 0.16 0.15 0.14 0.18 0.30 0.36 0.36 0.25 0.10 0.04 0.04 0.05 0.04 0.04 0.04 0.02 0.01 0.00 0.00 0.00 0.01 0.01 0.02 0.03 0.04 0.05 0.05 0.03 0.01
0.00 0.01 0.02 0.04 0.07 0.11 0.14 0.17 0.18 0.19 0.21 0.22 0.23 0.21 0.19 0.17 0.15 0.17 0.21 0.23 0.23 0.16 0.07 0.03 0.03 0.05 0.06 0.07 0.05 0.02 0.00 0.00 0.00 0.00 0.01 0.01 0.02 0.03 0.03 0.02 0.02 0.01 0.00
0.00 0.00 0.01 0.02 0.04 0.07 0.10 0.12 0.14 0.16 0.19 0.21 0.21 0.21 0.20 0.19 0.17 0.14 0.13 0.13 0.14 0.12 0.05 0.04 0.05 0.04 0.05 0.05 0.05 0.02 0.00 0.00 0.00 0.00 0.01 0.00 0.00 0.01 0.01 0.01 0.00 0.00 0.00
0.00 0.00 0.00 0.00 0.01 0.02 0.03 0.05 0.07 0.09 0.11 0.12 0.14 0.16 0.16 0.14 0.11 0.09 0.08 0.07 0.08 0.09 0.06 0.05 0.08 0.07 0.04 0.03 0.04 0.03 0.01 0.00 0.00 0.00 0.00 0.00 0.00 0.00 0.00 0.00 0.00 0.00 0.00
0.00 0.00 0.00 0.00 0.00 0.00 0.00 0.01 0.02 0.03 0.04 0.06 0.08 0.08 0.06 0.04 0.03 0.02 0.02 0.02 0.03 0.05 0.05 0.05 0.08 0.08 0.04 0.04 0.05 0.03 0.01 0.01 0.00 0.00 0.00 0.00 0.00 0.00 0.00 0.00 0.00 0.00 0.00
0.00 0.00 0.00 0.00 0.00 0.00 0.00 0.00 0.00 0.01 0.02 0.04 0.04 0.03 0.01 0.01 0.00 0.00 0.00 0.00 0.01 0.03 0.05 0.06 0.10 0.11 0.07 0.07 0.07 0.05 0.03 0.02 0.01 0.01 0.01 0.00 0.00 0.00 0.00 0.00 0.00 0.00 0.00
0.00 0.00 0.00 0.00 0.00 0.00 0.00 0.00 0.00 0.01 0.02 0.02 0.02 0.01 0.00 0.00 0.00 0.00 0.00 0.00 0.00 0.02 0.04 0.07 0.11 0.15 0.14 0.12 0.11 0.09 0.06 0.04 0.02 0.01 0.01 0.01 0.01 0.02 0.01 0.01 0.01 0.00 0.00
0.00 0.00 0.00 0.00 0.00 0.00 0.00 0.00 0.00 0.00 0.00 0.00 0.00 0.00 0.00 0.00 0.00 0.00 0.00 0.00 0.00 0.00 0.03 0.07 0.11 0.16 0.18 0.20 0.20 0.16 0.11 0.06 0.03 0.01 0.01 0.01 0.02 0.03 0.02 0.01 0.01 0.01 0.01
0.00 0.00 0.00 0.00 0.00 0.00 0.00 0.00 0.00 0.00 0.00 0.00 0.00 0.00 0.00 0.00 0.00 0.00 0.00 0.00 0.00 0.00 0.01 0.03 0.04 0.05 0.08 0.13 0.19 0.19 0.14 0.09 0.06 0.03 0.01 0.01 0.01 0.02 0.02 0.02 0.02 0.02 0.01
0.01 0.01 0.01 0.00 0.00 0.00 0.00 0.00 0.00 0.00 0.00 0.00 0.00 0.00 0.00 0.00 0.00 0.00 0.00 0.00 0.00 0.00 0.00 0.00 0.00 0.01 0.01 0.03 0.06 0.10 0.10 0.07 0.04 0.03 0.02 0.01 0.02 0.02 0.02 0.02 0.02 0.02 0.01
0.00 0.01 0.01 0.00 0.00 0.00 0.00 0.00 0.00 0.00 0.00 0.00 0.00 0.00 0.00 0.00 0.00 0.00 0.00 0.00 0.00 0.00 0.00 0.00 0.00 0.00 0.00 0.00 0.01 0.02 0.02 0.03 0.03 0.03 0.02 0.01 0.02 0.03 0.04 0.05 0.07 0.05 0.03
0.00 0.00 0.01 0.00 0.00 0.00 0.00 0.00 0.00 0.00 0.00 0.00 0.00 0.00 0.00 0.00 0.00 0.00 0.00 0.00 0.00 0.00 0.00 0.00 0.00 0.00 0.00 0.00 0.00 0.01 0.01 0.01 0.01 0.02 0.02 0.02 0.03 0.06 0.09 0.16 0.19 0.17 0.13
MSLP
1014.58 1014.66 1014.68 1014.68 1014.69 1014.74 1014.83 1014.96 1015.10 1015.20 1015.24 1015.19 1015.05 1014.84 1014.59 1014.34 1014.13 1013.97 1013.88 1013.83 1013.82 1013.82 1013.82 1013.81 1013.80 1013.79 1013.79 1013.81 1013.85 1013.91 1013.98 1014.05 1014.13 1014.23 1014.37 1014.56 1014.84 1015.19 1015.62 1016.08 1016.57 1017.03 1017.44
1014.12 1014.21 1014.26 1014.30 1014.36 1014.46 1014.59 1014.74 1014.89 1014.99 1015.02 1014.95 1014.80 1014.57 1014.30 1014.03 1013.79 1013.61 1013.49 1013.42 1013.40 1013.41 1013.42 1013.43 1013.45 1013.46 1013.47 1013.49 1013.51 1013.53 1013.55 1013.57 1013.61 1013.67 1013.79 1013.97 1014.25 1014.62 1015.07 1015.58 1016.10 1016.61 1017.09
1013.67 1013.77 1013.85 1013.94 1014.05 1014.20 1014.37 1014.55 1014.71 1014.82 1014.84 1014.76 1014.59 1014.35 1014.07 1013.78 1013.51 1013.29 1013.13 1013.03 1012.98 1012.96 1012.97 1012.99 1013.03 1013.06 1013.10 1013.13 1013.15 1013.16 1013.16 1013.14 1013.13 1013.15 1013.23 1013.39 1013.65 1014.02 1014.48 1015.01 1015.57 1016.14 1016.68
1013.27 1013.37 1013.48 1013.60 1013.76 1013.95 1014.15 1014.35 1014.52 1014.62 1014.64 1014.56 1014.40 1014.16 1013.87 1013.57 1013.28 1013.03 1012.82 1012.67 1012.56 1012.50 1012.48 1012.49 1012.53 1012.58 1012.65 1012.71 1012.75 1012.77 1012.76 1012.72 1012.67 1012.65 1012.69 1012.81 1013.03 1013.38 1013.84 1014.39 1014.99 1015.61 1016.23
1012.94 1013.03 1013.15 1013.29 1013.48 1013.68 1013.90 1014.10 1014.26 1014.36 1014.37 1014.30 1014.15 1013.94 1013.67 1013.38 1013.09 1012.81 1012.56 1012.34 1012.17 1012.04 1011.97 1011.95 1011.97 1012.04 1012.13 1012.22 1012.29 1012.33 1012.32 1012.27 1012.21 1012.14 1012.13 1012.20 1012.39 1012.71 1013.16 1013.72 1014.36 1015.05 1015.74
1012.70 1012.76 1012.86 1013.00 1013.18 1013.38 1013.57 1013.75 1013.89 1013.97 1013.99 1013.94 1013.82 1013.65 1013.44 1013.19 1012.92 1012.64 1012.36 1012.08 1011.84 1011.64 1011.49 1011.41 1011.40 1011.46 1011.55 1011.67 1011.77 1011.83 1011.84 1011.79 1011.70 1011.60 1011.55 1011.57 1011.72 1012.01 1012.45 1013.03 1013.72 1014.47 1015.24
1012.55 1012.56 1012.62 1012.73 1012.87 1013.02 1013.17 1013.30 1013.40 1013.46 1013.48 1013.45 1013.39 1013.30 1013.16 1012.99 1012.78 1012.52 1012.23 1011.92 1011.61 1011.33 1011.10 1010.94 1010.88 1010.89 1010.98 1011.09 1011.21 1011.28 1011.30 1011.25 1011.15 1011.03 1010.94 1010.93 1011.04 1011.30 1011.74 1012.34 1013.08 1013.89 1014.74
1012.48 1012.43 1012.43 1012.47 1012.55 1012.63 1012.71 1012.77 1012.82 1012.85 1012.87 1012.88 1012.89 1012.88 1012.85 1012.78 1012.66 1012.46 1012.19 1011.86 1011.50 1011.15 1010.83 1010.59 1010.45 1010.41 1010.45 1010.54 1010.65 1010.73 1010.75 1010.69 1010.58 1010.44 1010.32 1010.28 1010.37 1010.63 1011.07 1011.70 1012.47 1013.35 1014.28
1012.48 1012.36 1012.30 1012.26 1012.25 1012.25 1012.24 1012.22 1012.20 1012.20 1012.21 1012.26 1012.35 1012.44 1012.54 1012.59 1012.57 1012.45 1012.22 1011.90 1011.51 1011.10 1010.71 1010.38 1010.16 1010.04 1010.02 1010.07 1010.15 1010.20 1010.21 1010.15 1010.03 1009.87 1009.74 1009.69 1009.78 1010.03 1010.49 1011.14 1011.96 1012.89 1013.87
1012.53 1012.36 1012.22 1012.11 1012.02 1011.92 1011.82 1011.72 1011.64 1011.59 1011.60 1011.68 1011.83 1012.02 1012.23 1012.40 1012.49 1012.46 1012.29 1012.00 1011.61 1011.16 1010.71 1010.31 1010.00 1009.81 1009.72 1009.71 1009.74 1009.76 1009.74 1009.67 1009.54 1009.38 1009.25 1009.21 1009.30 1009.57 1010.04 1010.72 1011.57 1012.53 1013.56
1012.62 1012.41 1012.22 1012.04 1011.87 1011.69 1011.51 1011.33 1011.18 1011.09 1011.09 1011.19 1011.38 1011.65 1011.94 1012.21 1012.40 1012.45 1012.35 1012.10 1011.72 1011.25 1010.77 1010.32 1009.95 1009.69 1009.53 1009.46 1009.44 1009.42 1009.38 1009.29 1009.16 1009.01 1008.90 1008.87 1008.98 1009.28 1009.77 1010.46 1011.33 1012.31 1013.34
1012.73 1012.49 1012.27 1012.05 1011.83 1011.58 1011.33 1011.08 1010.87 1010.74 1010.72 1010.81 1011.03 1011.33 1011.68 1012.01 1012.26 1012.38 1012.34 1012.12 1011.77 1011.32 1010.83 1010.35 1009.95 1009.64 1009.44 1009.32 1009.25 1009.20 1009.14 1009.05 1008.93 1008.80 1008.72 1008.73 1008.87 1009.19 1009.71 1010.40 1011.26 1012.23 1013.24
1012.84 1012.61 1012.38 1012.14 1011.88 1011.59 1011.29 1010.99 1010.73 1010.56 1010.50 1010.57 1010.78 1011.08 1011.44 1011.79 1012.07 1012.21 1012.20 1012.03 1011.71 1011.28 1010.81 1010.35 1009.95 1009.63 1009.40 1009.26 1009.17 1009.10 1009.03 1008.95 1008.85 1008.77 1008.73 1008.79 1008.97 1009.32 1009.84 1010.54 1011.36 1012.29 1013.25
1012.94 1012.74 1012.52 1012.28 1012.01 1011.70 1011.37 1011.03 1010.74 1010.52 1010.42 1010.46 1010.62 1010.89 1011.21 1011.54 1011.80 1011.94 1011.94 1011.79 1011.51 1011.12 1010.69 1010.27 1009.89 1009.60 1009.38 1009.24 1009.15 1009.09 1009.04 1008.98 1008.93 1008.89 1008.92 1009.03 1009.26 1009.63 1010.16 1010.83 1011.61 1012.46 1013.34
1013.04 1012.88 1012.69 1012.46 1012.19 1011.87 1011.53 1011.17 1010.85 1010.60 1010.47 1010.45 1010.56 1010.76 1011.02 1011.28 1011.49 1011.60 1011.59 1011.44 1011.18 1010.84 1010.47 1010.10 1009.78 1009.53 1009.35 1009.23 1009.17 1009.14 1009.12 1009.11 1009.11 1009.14 1009.23 1009.40 1009.68 1010.08 1010.60 1011.24 1011.95 1012.72 1013.49
1013.15 1013.02 1012.86 1012.65 1012.39 1012.08 1011.73 1011.37 1011.04 1010.77 1010.60 1010.54 1010.58 1010.71 1010.89 1011.06 1011.20 1011.25 1011.20 1011.04 1010.80 1010.50 1010.18 1009.87 1009.61 1009.42 1009.29 1009.23 1009.21 1009.22 1009.24 1009.29 1009.35 1009.45 1009.61 1009.84 1010.17 1010.59 1011.10 1011.68 1012.33 1012.99 1013.65
1013.27 1013.17 1013.03 1012.84 1012.59 1012.29 1011.95 1011.61 1011.28 1011.01 1010.82 1010.72 1010.71 1010.76 1010.86 1010.94 1010.99 1010.97 1010.87 1010.68 1010.44 1010.16 1009.89 1009.64 1009.44 1009.30 1009.23 1009.21 1009.24 1009.30 1009.38 1009.48 1009.61 1009.77 1009.99 1010.28 1010.64 1011.07 1011.56 1012.09 1012.65 1013.22 1013.76
1013.41 1013.33 1013.20 1013.03 1012.79 1012.51 1012.19 1011.86 1011.56 1011.30 1011.11 1010.99 1010.95 1010.94 1010.96 1010.97 1010.93 1010.83 1010.67 1010.45 1010.19 1009.92 1009.67 1009.45 1009.30 1009.21 1009.18 1009.20 1009.27 1009.36 1009.49 1009.64 1009.82 1010.04 1010.31 1010.64 1011.02 1011.45 1011.91 1012.39 1012.87 1013.33 1013.77
1013.57 1013.50 1013.38 1013.21 1012.99 1012.73 1012.44 1012.15 1011.87 1011.65 1011.47 1011.36 1011.29 1011.26 1011.22 1011.16 1011.05 1010.88 1010.66 1010.40 1010.11 1009.83 1009.58 1009.38 1009.24 1009.17 1009.16 1009.21 1009.29 1009.41 1009.56 1009.75 1009.96 1010.22 1010.53 1010.88 1011.26 1011.67 1012.10 1012.52 1012.92 1013.29 1013.62
1013.74 1013.67 1013.56 1013.41 1013.21 1012.97 1012.72 1012.46 1012.23 1012.04 1011.90 1011.81 1011.74 1011.69 1011.62 1011.51 1011.34 1011.12 1010.84 1010.53 1010.21 1009.90 1009.63 1009.42 1009.28 1009.21 1009.20 1009.24 1009.33 1009.46 1009.61 1009.81 1010.04 1010.31 1010.62 1010.97 1011.34 1011.73 1012.10 1012.46 1012.78 1013.06 1013.31
1013.90 1013.85 1013.76 1013.63 1013.45 1013.25 1013.03 1012.82 1012.63 1012.49 1012.38 1012.31 1012.25 1012.20 1012.11 1011.97 1011.77 1011.50 1011.18 1010.82 1010.46 1010.12 1009.83 1009.59 1009.43 1009.33 1009.30 1009.33 1009.39 1009.50 1009.65 1009.83 1010.05 1010.31 1010.61 1010.94 1011.28 1011.61 1011.93 1012.22 1012.46 1012.67 1012.84
1014.07 1014.04 1013.97 1013.87 1013.73 1013.56 1013.38 1013.21 1013.06 1012.96 1012.88 1012.83 1012.79 1012.73 1012.64 1012.48 1012.25 1011.95 1011.60 1011.22 1010.82 1010.45 1010.13 1009.86 1009.66 1009.54 1009.47 1009.46 1009.49 1009.57 1009.68 1009.84 1010.03 1010.26 1010.52 1010.80 1011.09 1011.37 1011.63 1011.84 1012.01 1012.14 1012.25
1014.23 1014.23 1014.20 1014.14 1014.04 1013.91 1013.77 1013.63 1013.52 1013.43 1013.38 1013.34 1013.30 1013.24 1013.14 1012.97 1012.73 1012.41 1012.04 1011.64 1011.23 1010.83 1010.48 1010.19 1009.96 1009.80 1009.70 1009.65 1009.64 1009.68 1009.75 1009.86 1010.00 1010.18 1010.39 1010.62 1010.85 1011.06 1011.24 1011.38 1011.48 1011.54 1011.58
1014.40 1014.45 1014.47 1014.45 1014.39 1014.30 1014.19 1014.08 1013.98 1013.90 1013.85 1013.81 1013.76 1013.69 1013.57 1013.39 1013.14 1012.82 1012.45 1012.04 1011.62 1011.23 1010.86 1010.56 1010.31 1010.12 1009.99 1009.90 1009.85 1009.84 1009.86 1009.91 1010.00 1010.12 1010.27 1010.43 1010.58 1010.72 1010.83 1010.90 1010.93 1010.93 1010.91
1014.60 1014.70 1014.77 1014.79 1014.77 1014.71 1014.63 1014.53 1014.43 1014.35 1014.28 1014.22 1014.16 1014.06 1013.93 1013.74 1013.48 1013.16 1012.79 1012.40 1011.99 1011.61 1011.25 1010.94 1010.69 1010.48 1010.32 1010.20 1010.11 1010.05 1010.02 1010.02 1010.04 1010.10 1010.17 1010.26 1010.34 1010.41 1010.45 1010.46 1010.43 1010.37 1010.31
1014.86 1015.00 1015.11 1015.18 1015.19 1015.15 1015.08 1014.98 1014.88 1014.78 1014.69 1014.60 1014.51 1014.39 1014.23 1014.03 1013.77 1013.46 1013.11 1012.73 1012.35 1011.98 1011.65 1011.35 1011.10 1010.89 1010.71 1010.56 1010.44 1010.33 1010.24 1010.18 1010.13 1010.11 1010.12 1010.13 1010.14 1010.15 1010.13 1010.08 1010.01 1009.91 1009.82
Thickness
5788 5786 5785 5782 5779 5776 5774 5771 5769 5767 5765 5764 5764 5763 5764 5765 5766 5766 5766 5767 5767 5767 5765 5763 5761 5758 5755 5753 5750 5747 5745 5743 5741 5739 5737 5734 5731 5727 5723 5719 5715 5712 5709
5789 5787 5784 5782 5779 5776 5773 5770 5768 5766 5765 5764 5763 5764 5764 5765 5766 5766 5767 5767 5766 5765 5764 5763 5761 5759 5757 5754 5752 5749 5747 5745 5743 5741 5738 5736 5733 5730 5725 5720 5716 5712 5708
5787 5785 5782 5779 5777 5775 5772 5770 5768 5765 5763 5762 5761 5762 5763 5764 5764 5765 5765 5765 5764 5763 5762 5761 5760 5759 5757 5755 5753 5751 5749 5746 5744 5742 5740 5738 5735 5732 5727 5722 5716 5711 5707
5784 5782 5779 5776 5775 5772 5770 5767 5765 5761 5760 5758 5758 5759 5760 5761 5762 5763 5763 5763 5762 5761 5761 5760 5759 5758 5757 5755 5753 5751 5749 5747 5745 5744 5742 5739 5737 5733 5729 5723 5717 5711 5706
5779 5777 5775 5773 5771 5769 5766 5764 5762 5759 5756 5755 5755 5756 5757 5758 5760 5761 5760 5760 5760 5759 5758 5758 5758 5757 5756 5754 5753 5751 5750 5748 5746 5744 5742 5740 5738 5735 5730 5723 5717 5711 5705
5774 5772 5770 5769 5767 5764 5762 5760 5758 5756 5754 5753 5753 5753 5753 5755 5757 5757 5757 5757 5756 5755 5755 5755 5755 5755 5755 5754 5752 5751 5749 5748 5746 5744 5742 5740 5738 5735 5731 5724 5717 5710 5704
5767 5767 5765 5763 5761 5759 5758 5757 5754 5751 5750 5749 5745 5743 5747 5751 5753 5754 5754 5753 5753 5752 5751 5752 5752 5752 5753 5752 5751 5749 5748 5747 5746 5744 5742 5740 5738 5735 5731 5724 5717 5709 5702
5760 5760 5758 5756 5756 5754 5753 5752 5749 5745 5745 5744 5738 5733 5731 5736 5744 5750 5750 5750 5749 5747 5746 5748 5749 5749 5750 5749 5748 5747 5746 5745 5744 5743 5742 5740 5738 5735 5731 5724 5716 5709 5701
5751 5752 5752 5751 5750 5749 5747 5747 5745 5741 5737 5738 5737 5730 5723 5722 5729 5738 5742 5743 5742 5741 5741 5743 5746 5746 5747 5746 5745 5744 5743 5742 5742 5741 5740 5739 5737 5734 5730 5724 5716 5707 5699
5743 5744 5744 5745 5745 5744 5743 5742 5741 5738 5734 5730 5730 5731 5729 5727 5721 5722 5730 5735 5737 5736 5737 5738 5741 5743 5744 5743 5742 5741 5739 5738 5738 5738 5739 5738 5737 5734 5730 5724 5715 5706 5696
5734 5735 5736 5737 5738 5738 5738 5736 5735 5733 5730 5727 5724 5723 5721 5721 5720 5716 5716 5723 5728 5732 5733 5734 5735 5737 5738 5738 5737 5736 5735 5734 5735 5735 5736 5737 5736 5734 5730 5723 5714 5703 5693
5724 5724 5726 5727 5728 5730 5730 5730 5728 5726 5724 5722 5720 5718 5716 5713 5712 5711 5710 5712 5715 5723 5727 5730 5731 5733 5733 5732 5732 5731 5730 5730 5731 5732 5733 5734 5734 5732 5729 5721 5710 5699 5690
5712 5712 5713 5714 5716 5718 5719 5720 5719 5717 5716 5714 5713 5712 5711 5710 5708 5706 5704 5704 5706 5711 5716 5721 5724 5726 5727 5726 5725 5724 5724 5725 5725 5726 5728 5730 5730 5727 5722 5714 5703 5693 5685
5701 5701 5701 5702 5702 5703 5705 5706 5706 5705 5705 5704 5704 5704 5703 5703 5702 5700 5698 5696 5695 5697 5702 5708 5715 5718 5719 5719 5718 5718 5718 5717 5718 5719 5720 5721 5721 5718 5712 5704 5695 5687 5680
5690 5689 5689 5689 5689 5690 5690 5691 5691 5691 5692 5693 5693 5694 5694 5695 5695 5695 5693 5692 5688 5685 5688 5697 5704 5710 5711 5711 5710 5710 5710 5709 5710 5710 5711 5710 5709 5705 5700 5694 5686 5679 5673
5678 5678 5678 5679 5679 5679 5680 5680 5680 5680 5681 5681 5682 5683 5684 5685 5686 5687 5686 5686 5684 5680 5680 5689 5696 5702 5704 5704 5704 5703 5703 5702 5702 5702 5701 5699 5697 5694 5689 5683 5677 5671 5666
5669 5669 5670 5670 5671 5671 5671 5671 5671 5671 5672 5672 5673 5673 5674 5675 5676 5678 5679 5679 5679 5677 5675 5683 5690 5696 5697 5697 5697 5697 5696 5694 5693 5693 5692 5689 5686 5683 5679 5675 5670 5664 5661
5661 5662 5663 5663 5664 5665 5665 5665 5665 5665 5665 5664 5664 5663 5663 5665 5665 5667 5669 5670 5671 5673 5674 5676 5683 5688 5691 5692 5691 5690 5689 5688 5686 5685 5683 5680 5677 5674 5671 5667 5663 5660 5657
5652 5653 5654 5654 5655 5656 5658 5659 5660 5660 5659 5657 5656 5654 5653 5654 5654 5656 5659 5661 5665 5669 5673 5675 5679 5684 5685 5686 5684 5683 5682 5681 5680 5678 5675 5673 5670 5668 5664 5661 5658 5656 5654
5643 5643 5643 5644 5645 5647 5649 5650 5652 5652 5650 5649 5648 5647 5646 5646 5646 5649 5653 5654 5658 5663 5668 5671 5674 5677 5679 5680 5679 5676 5674 5674 5673 5673 5670 5667 5665 5662 5660 5657 5655 5654 5653
5634 5633 5633 5633 5634 5636 5637 5639 5640 5640 5639 5638 5639 5639 5639 5640 5641 5643 5645 5647 5651 5656 5660 5664 5666 5668 5670 5671 5671 5671 5668 5666 5666 5666 5664 5663 5661 5659 5657 5655 5654 5653 5653
5624 5623 5622 5621 5622 5623 5625 5627 5628 5626 5626 5626 5626 5627 5629 5629 5632 5635 5637 5640 5643 5646 5649 5653 5655 5657 5660 5662 5664 5663 5661 5659 5656 5659 5659 5657 5658 5657 5656 5655 5655 5654 5654
5614 5613 5612 5611 5610 5611 5614 5615 5614 5612 5611 5611 5611 5612 5615 5616 5619 5622 5625 5629 5632 5635 5638 5640 5641 5644 5648 5651 5655 5655 5654 5653 5652 5653 5653 5651 5653 5653 5653 5653 5654 5653 5653
5606 5604 5602 5601 5601 5601 5602 5602 5601 5599 5597 5596 5596 5597 5599 5600 5603 5607 5610 5614 5617 5621 5624 5627 5629 5631 5635 5640 5643 5645 5646 5645 5645 5646 5647 5644 5646 5647 5648 5648 5649 5650 5651
5596 5595 5593 5592 5590 5589 5591 5591 5590 5587 5584 5583 5584 5585 5586 5587 5589 5594 5596 5599 5603 5607 5612 5615 5618 5621 5624 5627 5629 5632 5633 5634 5633 5635 5637 5638 5639 5640 5642 5642 5643 5644 5645
5587 5586 5583 5581 5580 5579 5580 5582 5581 5578 5575 5574 5573 5574 5575 5576 5577 5580 5581 5583 5585 5589 5594 5601 5604 5607 5610 5613 5616 5617 5619 5620 5621 5623 5627 5629 5631 5632 5633 5636 5637 5637 5637